Hourly Weather Juszczyn

Today, 2 March, Tuesday

Time Temperature Precipitation Wind Pressure Humidity
00:00 +3°C° 0 mm 1 mps 763 mmHg 90%
01:00 +3°C° 0 mm 1 mps 763 mmHg 91%
02:00 +3°C° 0 mm 1 mps 763 mmHg 91%
03:00 +3°C° 0 mm 1 mps 763 mmHg 91%
04:00 +3°C° 0 mm 1 mps 763 mmHg 90%
05:00 +3°C° 0 mm 1 mps 763 mmHg 89%
06:00 +3°C° 0 mm 1 mps 763 mmHg 88%
07:00 +3°C° 0 mm 1 mps 763 mmHg 88%
08:00 +5°C° 0 mm 1 mps 763 mmHg 81%
09:00 +7°C° 0 mm 1 mps 763 mmHg 74%
10:00 +8°C° 0 mm 2 mps 763 mmHg 67%
11:00 +9°C° 0 mm 2 mps 763 mmHg 62%
12:00 +10°C° 0 mm 2 mps 763 mmHg 57%
13:00 +13°C° 0 mm 2 mps 763 mmHg 52%
14:00 +13°C° 0 mm 2 mps 762 mmHg 53%
15:00 +13°C° 0 mm 1 mps 762 mmHg 54%
16:00 +13°C° 0 mm 1 mps 762 mmHg 55%
17:00 +12°C° 0 mm 1 mps 762 mmHg 60%
18:00 +10°C° 0 mm 1 mps 762 mmHg 64%
19:00 +8°C° 0 mm 0 mps 762 mmHg 69%
20:00 +7°C° 0 mm 0 mps 762 mmHg 71%
21:00 +7°C° 0 mm 0 mps 762 mmHg 73%
22:00 +6°C° 0 mm 0 mps 762 mmHg 75%
23:00 +6°C° 0 mm 0 mps 762 mmHg 77%

Tomorrow, 3 March, Wednesday

Time Temperature Precipitation Wind Pressure Humidity
00:00 +6°C° 0 mm 1 mps 762 mmHg 78%
01:00 +6°C° 0 mm 1 mps 762 mmHg 79%
02:00 +5°C° 0 mm 1 mps 761 mmHg 80%
03:00 +5°C° 0 mm 1 mps 761 mmHg 81%
04:00 +5°C° 0 mm 1 mps 760 mmHg 81%
05:00 +5°C° 0 mm 1 mps 760 mmHg 80%
06:00 +5°C° 0 mm 1 mps 760 mmHg 79%
07:00 +5°C° 0 mm 1 mps 760 mmHg 78%
08:00 +6°C° 0 mm 1 mps 760 mmHg 71%
09:00 +8°C° 0 mm 1 mps 759 mmHg 64%
10:00 +9°C° 0 mm 0 mps 759 mmHg 56%
11:00 +11°C° 0 mm 1 mps 759 mmHg 52%
12:00 +13°C° 0 mm 1 mps 758 mmHg 48%
13:00 +14°C° 0 mm 1 mps 758 mmHg 44%
14:00 +14°C° 0 mm 1 mps 757 mmHg 46%
15:00 +14°C° 0 mm 1 mps 756 mmHg 47%
16:00 +14°C° 0 mm 1 mps 756 mmHg 48%
17:00 +12°C° 0 mm 2 mps 755 mmHg 55%
18:00 +10°C° 0 mm 2 mps 755 mmHg 61%
19:00 +8°C° 0 mm 2 mps 755 mmHg 67%
20:00 +7°C° 0 mm 3 mps 755 mmHg 69%
21:00 +7°C° 0 mm 3 mps 754 mmHg 70%
22:00 +5°C° 0 mm 3 mps 754 mmHg 71%
23:00 +5°C° 0 mm 3 mps 753 mmHg 71%

Day after tomorrow, 4 March, Thursday

Time Temperature Precipitation Wind Pressure Humidity
00:00 +7°C° 0 mm 3 mps 753 mmHg 71%
01:00 +7°C° 0 mm 3 mps 752 mmHg 70%
02:00 +5°C° 0 mm 3 mps 752 mmHg 73%
03:00 +5°C° 0 mm 4 mps 751 mmHg 75%
04:00 +5°C° 0 mm 4 mps 751 mmHg 77%
05:00 +5°C° 0 mm 4 mps 751 mmHg 80%
06:00 +4°C° 0 mm 4 mps 750 mmHg 83%
07:00 +4°C° 0 mm 3 mps 750 mmHg 86%
08:00 +6°C° 0 mm 4 mps 750 mmHg 80%
09:00 +7°C° 0 mm 5 mps 749 mmHg 74%
10:00 +9°C° 0 mm 6 mps 749 mmHg 68%
11:00 +10°C° 0 mm 6 mps 749 mmHg 64%
12:00 +10°C° 0 mm 6 mps 748 mmHg 60%
13:00 +11°C° 0 mm 6 mps 748 mmHg 55%
14:00 +10°C° 0 mm 5 mps 748 mmHg 58%
15:00 +10°C° 0 mm 5 mps 747 mmHg 61%
16:00 +9°C° 0 mm 5 mps 747 mmHg 64%
17:00 +8°C° 0.4 mm 5 mps 747 mmHg 71%
18:00 +6°C° 0.4 mm 4 mps 747 mmHg 79%
19:00 +5°C° 0.4 mm 4 mps 747 mmHg 86%
20:00 +4°C° 0.3 mm 4 mps 747 mmHg 87%
21:00 +4°C° 0.3 mm 3 mps 747 mmHg 88%
22:00 +3°C° 0.3 mm 3 mps 747 mmHg 89%
23:00 +3°C° 0.1 mm 3 mps 747 mmHg 90%

5 March, Friday

Time Temperature Precipitation Wind Pressure Humidity
00:00 +2°C° 0.1 mm 3 mps 747 mmHg 92%
01:00 +2°C° 0.1 mm 3 mps 747 mmHg 93%
02:00 +1°C° 0.2 mm 3 mps 747 mmHg 93%
03:00 -1°C° 0.2 mm 4 mps 747 mmHg 93%
04:00 -1°C° 0.2 mm 4 mps 748 mmHg 93%
05:00 -2°C° 0.3 mm 4 mps 748 mmHg 89%
06:00 -2°C° 0.3 mm 4 mps 749 mmHg 84%
07:00 -2°C° 0.3 mm 4 mps 749 mmHg 80%
08:00 -2°C° 0 mm 4 mps 750 mmHg 75%
09:00 -1°C° 0 mm 4 mps 750 mmHg 70%
10:00 -1°C° 0 mm 4 mps 751 mmHg 65%
11:00 0°C° 0 mm 5 mps 751 mmHg 60%
12:00 0°C° 0 mm 5 mps 752 mmHg 55%
13:00 +1°C° 0 mm 5 mps 752 mmHg 51%
14:00 +1°C° 0 mm 5 mps 752 mmHg 50%
15:00 +1°C° 0 mm 4 mps 753 mmHg 49%
16:00 +1°C° 0 mm 4 mps 753 mmHg 48%
17:00 0°C° 0.1 mm 4 mps 753 mmHg 53%
18:00 +1°C° 0.1 mm 3 mps 754 mmHg 58%
19:00 0°C° 0.1 mm 3 mps 755 mmHg 62%
20:00 -1°C° 0 mm 3 mps 755 mmHg 64%
21:00 -1°C° 0 mm 3 mps 756 mmHg 66%
22:00 -2°C° 0 mm 3 mps 757 mmHg 67%
23:00 -2°C° 0 mm 3 mps 757 mmHg 70%

6 March, Saturday

Time Temperature Precipitation Wind Pressure Humidity
00:00 -4°C° 0 mm 3 mps 757 mmHg 72%
01:00 -4°C° 0 mm 3 mps 758 mmHg 74%
02:00 -4°C° 0 mm 3 mps 758 mmHg 75%
03:00 -4°C° 0 mm 3 mps 758 mmHg 76%
04:00 -4°C° 0 mm 3 mps 759 mmHg 77%
05:00 -4°C° 0 mm 3 mps 759 mmHg 76%
06:00 -4°C° 0 mm 3 mps 759 mmHg 74%
07:00 -4°C° 0 mm 3 mps 760 mmHg 73%
08:00 -2°C° 0 mm 3 mps 760 mmHg 65%
09:00 -1°C° 0 mm 4 mps 760 mmHg 57%
10:00 0°C° 0 mm 4 mps 761 mmHg 48%
11:00 +1°C° 0 mm 5 mps 760 mmHg 45%
12:00 +1°C° 0 mm 5 mps 760 mmHg 41%
13:00 +2°C° 0 mm 5 mps 760 mmHg 37%
14:00 +2°C° 0 mm 5 mps 760 mmHg 37%
15:00 +2°C° 0 mm 5 mps 760 mmHg 38%
16:00 +2°C° 0 mm 5 mps 759 mmHg 38%
17:00 0°C° 0 mm 4 mps 759 mmHg 44%
18:00 -1°C° 0 mm 4 mps 759 mmHg 49%
19:00 -1°C° 0 mm 3 mps 759 mmHg 55%
20:00 -1°C° 0 mm 3 mps 759 mmHg 55%
21:00 -2°C° 0 mm 4 mps 759 mmHg 55%
22:00 -2°C° 0 mm 4 mps 759 mmHg 56%
23:00 -2°C° 0 mm 4 mps 758 mmHg 55%

7 March, Sunday

Time Temperature Precipitation Wind Pressure Humidity
00:00 -2°C° 0 mm 4 mps 758 mmHg 55%
01:00 -2°C° 0 mm 5 mps 758 mmHg 54%
02:00 -2°C° 0 mm 5 mps 757 mmHg 55%
03:00 -2°C° 0 mm 4 mps 757 mmHg 55%
04:00 -2°C° 0 mm 4 mps 756 mmHg 56%
05:00 -2°C° 0 mm 5 mps 756 mmHg 57%
06:00 -2°C° 0 mm 5 mps 756 mmHg 58%
07:00 -2°C° 0 mm 5 mps 755 mmHg 59%
08:00 -1°C° 0 mm 5 mps 755 mmHg 56%
09:00 -1°C° 0 mm 6 mps 755 mmHg 54%
10:00 +2°C° 0 mm 7 mps 754 mmHg 51%
11:00 +2°C° 0 mm 7 mps 754 mmHg 49%
12:00 +3°C° 0 mm 7 mps 753 mmHg 48%
13:00 +4°C° 0 mm 7 mps 753 mmHg 46%
14:00 +4°C° 0 mm 7 mps 752 mmHg 47%
15:00 +4°C° 0 mm 7 mps 751 mmHg 48%
16:00 +4°C° 0 mm 6 mps 751 mmHg 48%
17:00 +2°C° 0 mm 6 mps 750 mmHg 55%
18:00 +1°C° 0 mm 5 mps 750 mmHg 62%
19:00 -1°C° 0 mm 4 mps 750 mmHg 69%
20:00 -1°C° 0 mm 5 mps 750 mmHg 72%
21:00 -1°C° 0 mm 5 mps 750 mmHg 76%
22:00 -1°C° 0 mm 5 mps 750 mmHg 80%
23:00 -2°C° 0.1 mm 6 mps 750 mmHg 85%
Show more

We Need Your Consent

Meteoprog and our Service Providers may store and access personal data such as cookies, device identifiers or other similar technologies on your device and process such data to personalise content and ads, as well as provide social media features and to analyse the traffic.

  • Store and/or access information on your device

    Cookies, device identifiers or other information can be stored or accessed on your device for the purposes indicated above.

  • Personalised ads and content, ad and content measurement, audience insights, and products development

    Ads and content can be personalised based on a profile. More data can be added to better personalise ads and content. Ad and content performance can be measured. Insights about the audience who saw the ads and content can be derived. Such data can be used to develop or improve user’s experience, systems and software.

By clicking ‘I Agree’ you will allow the use of indicated cookies, device identifiers, web beacons or other similar technologies. Your settings can be changed in the browser on your device.

For certain purposes, legitimate interests may be relied on, rather than consent. You can read more about this in our Privacy and Cookie Policy.